Weather History for KSLC - October, 2012

Change the Weather History Date:

Thursday, October 11, 2012

  Actual Average Record
Temperature  
Mean Temperature 67 °F 55 °F  
Max Temperature 80 °F 67 °F 87 °F (1996)
Min Temperature 54 °F 43 °F 27 °F (1946)
Degree Days  
Heating Degree Days 0 10  
Month to date heating degree days 71 94  
Since 1 July heating degree days 78 183  
Cooling Degree Days 2 0  
Month to date cooling degree days 7 5  
Year to date cooling degree days 1615 1158  
Growing Degree Days 17 (Base 50)    
Moisture  
Dew Point 41 °F    
Average Humidity 43    
Maximum Humidity 62    
Minimum Humidity 23    
Precipitation  
Precipitation 0.00 in 0.05 in 0.89 in (1997)
Month to date precipitation 0.00 0.52  
Year to date precipitation 8.09 12.24  
Snow  
Snow 0.00 in 0.00 in 0.30 in (1997)
Month to date snowfall 0.0 0.2  
Since 1 July snowfall 0.0 0.2  
Snow Depth 0.00 in    
Sea Level Pressure  
Sea Level Pressure 29.83 in    
Wind  
Wind Speed 6 mph (SE)    
Max Wind Speed 13 mph    
Max Gust Speed 15 mph    
Visibility 10 miles    
Events      
T = Trace of Precipitation, MM = Missing Value Source: NWS Daily Summary

Daily Weather History Graph

Daily Weather History Graph

Search for Another Location

Airport or City:

Trip Planner

Search our weather history database for the weather conditions in past years. The results will help you decide how hot, cold, wet, or windy it might be!

Date:

Astronomy

Oct. 11, 2012 Rise Set
Actual Time 7:35 AM MDT 6:52 PM MDT
Civil Twilight 7:07 AM MDT 7:20 PM MDT
Nautical Twilight 6:36 AM MDT 7:51 PM MDT
Astronomical Twilight 6:04 AM MDT 8:23 PM MDT
Moon 3:16 AM MDT (10/11) 4:32 PM MDT (10/11)
Length of Visible Light 12h 12m
Length of Day
11h 17m
Waning Crescent, 18% of the Moon is Illuminated
Oct 11
Waning Crescent
Oct 15
New
Oct 21
First Quarter
Oct 29
Full
Nov 6
Last Quarter

Hourly Weather History & Observations

Time (MDT) Temp. Dew Point Humidity Pressure Visibility Wind Dir Wind Speed Gust Speed Precip Events Conditions
12:53 AM 63.0 °F 41.0 °F 45% 29.83 in 10.0 mi ESE 9.2 mph - N/A   Mostly Cloudy
1:53 AM 61.0 °F 41.0 °F 48% 29.83 in 10.0 mi SE 9.2 mph - N/A   Scattered Clouds
2:53 AM 60.1 °F 42.1 °F 51% 29.83 in 10.0 mi SSE 10.4 mph - N/A   Scattered Clouds
3:53 AM 60.1 °F 43.0 °F 53% 29.83 in 10.0 mi ESE 5.8 mph - N/A   Mostly Cloudy
4:53 AM 59.0 °F 42.1 °F 53% 29.83 in 10.0 mi SE 8.1 mph - N/A   Scattered Clouds
5:53 AM 55.9 °F 42.1 °F 60% 29.86 in 10.0 mi ESE 6.9 mph - N/A   Scattered Clouds
6:53 AM 55.9 °F 43.0 °F 62% 29.87 in 10.0 mi ESE 5.8 mph - N/A   Scattered Clouds
7:53 AM 55.0 °F 44.1 °F 67% 29.89 in 10.0 mi SSE 6.9 mph - N/A   Scattered Clouds
8:53 AM 59.0 °F 44.1 °F 58% 29.90 in 10.0 mi SSE 8.1 mph - N/A   Scattered Clouds
9:53 AM 63.0 °F 43.0 °F 48% 29.90 in 10.0 mi SE 6.9 mph - N/A   Scattered Clouds
10:53 AM 68.0 °F 43.0 °F 40% 29.88 in 10.0 mi SE 5.8 mph - N/A   Scattered Clouds
11:53 AM 71.1 °F 41.0 °F 34% 29.86 in 10.0 mi Variable 3.5 mph - N/A   Scattered Clouds
12:53 PM 75.0 °F 39.0 °F 27% 29.84 in 10.0 mi Variable 3.5 mph - N/A   Scattered Clouds
1:53 PM 77.0 °F 39.0 °F 25% 29.81 in 10.0 mi Calm Calm - N/A   Scattered Clouds
2:53 PM 77.0 °F 39.9 °F 26% 29.78 in 10.0 mi NW 5.8 mph - N/A   Scattered Clouds
3:53 PM 80.6 °F 39.2 °F 23% 29.90 in 10.0 mi North 8.1 mph - N/A   Mostly Cloudy
4:53 PM 78.8 °F 39.2 °F 24% 29.88 in 10.0 mi North 9.2 mph - N/A   Mostly Cloudy
5:53 PM 78.1 °F 43.0 °F 29% 29.74 in 10.0 mi NNW 10.4 mph - N/A   Mostly Cloudy
6:53 PM 71.6 °F 44.6 °F 38% 29.88 in 10.0 mi WNW 6.9 mph - N/A   Mostly Cloudy
7:53 PM 71.1 °F 43.0 °F 36% 29.78 in 10.0 mi Calm Calm - 0.00 in   Mostly Cloudy
8:53 PM 70.0 °F 39.0 °F 32% 29.79 in 10.0 mi South 9.2 mph - N/A   Mostly Cloudy
9:53 PM 66.0 °F 37.0 °F 34% 29.81 in 10.0 mi SE 6.9 mph - N/A   Mostly Cloudy
10:53 PM 64.9 °F 35.1 °F 33% 29.80 in 10.0 mi South 5.8 mph - N/A   Scattered Clouds
11:53 PM 63.0 °F 36.0 °F 37% 29.81 in 10.0 mi SE 6.9 mph - N/A   Mostly Cloudy